Location: Julian California
(33.0790°N, 116.6010°W)
Time: 01:58:53
(UTC-07:00)

Cosmos 1340 - Pass Details

Date: 19 May 2017
Orbit: 505 x 510 km, 81.2° (Epoch: 28 June)

Event Time Altitude Azimuth Distance (km) Brightness Sun altitude
Rises 20:42:43 0° 202° (SSW) 2,596 6.1 -11.9°
Reaches altitude 10° 20:44:55 10° 209° (SSW) 1,717 5.3 -12.3°
Maximum altitude 20:48:29 41° 280° (W) 749 4.0 -12.9°
Drops below altitude 10° 20:52:06 10° 352° (N) 1,730 6.0 -13.5°
Sets 20:54:19 0° 360° (N) 2,621 6.8 -13.9°
